Location: ???????????
(55.5758°N, 38.4970°E)
Time: 18:03:31
(UTC+00:00)

SWARM C - Pass Details

Date: 15 November 2025
Orbit: 425 x 428 km, 87.3° (Epoch: 14 December)

Event Time Altitude Azimuth Distance (km) Brightness Sun altitude
Rises 03:01:35 0° 186° (S) 2,398 8.3 -16.4°
Reaches altitude 10° 03:03:37 10° 188° (S) 1,536 7.3 -16.2°
Maximum altitude 03:06:56 75° 274° (W) 456 4.4 -15.7°
Drops below altitude 10° 03:10:17 10° 0° (N) 1,548 7.2 -15.2°
Sets 03:12:20 0° 3° (N) 2,421 8.2 -15.0°
